Location: 5810 Zion Rd, Cleves, OH 45002, USA
(39.1922°N, 84.7113°W)
Time: 16:26:42
(UTC-05:00)

Vanguard 3 - Pass Details

Date: 14 December 2019
Orbit: 507 x 3263 km, 33.4° (Epoch: 21 January)

Event Time Altitude Azimuth Distance (km) Brightness Sun altitude
Rises 13:24:33 0° 276° (W) 5,224 11.4 26.5°
Reaches altitude 10° 13:27:56 10° 268° (W) 4,579 11.3 26.3°
Maximum altitude 13:39:45 35° 209° (SSW) 3,866 12.6 25.7°
Drops below altitude 10° 13:55:52 10° 153° (SSE) 6,174 12.3 24.7°
Sets 14:01:30 0° 146° (SE) 7,212 12.4 24.3°
